Location: Lecco
(45.8566°N, 9.3977°E)
Time: 03:20:27
(UTC+02:00)

Transit 4A - Pass Details

Date: 14 August 2020
Orbit: 863 x 982 km, 66.8° (Epoch: 23 September)

Event Time Altitude Azimuth Distance (km) Brightness Sun altitude
Rises 18:48:32 0° 324° (NW) 3,660 11.6 16.7°
Reaches altitude 10° 18:51:06 10° 321° (NW) 2,721 11.1 16.2°
Maximum altitude 18:57:21 59° 244° (WSW) 1,123 9.1 15.2°
Drops below altitude 10° 19:03:37 10° 166° (SSE) 2,725 10.2 14.1°
Sets 19:06:12 0° 163° (SSE) 3,666 10.8 13.6°
